Pagosa Springs, CO

9:25 PM MDT on August 29, 2016 (GMT -0600)
Pagosa Springs

Weather History for KPSO - July, 2014

Change the Weather History Date:

Thursday, July 3, 2014

  Actual Average (KDRO) Record (KDRO)
Temperature  
Mean Temperature 64 °F 67 °F  
Max Temperature 80 °F 85 °F 98 °F (1989)
Min Temperature 48 °F 48 °F 34 °F (1997)
Degree Days  
Heating Degree Days 1 1  
Month to date heating degree days 3  
Since 1 June heating degree days 118  
Since 1 July heating degree days 3  
Cooling Degree Days 0 3  
Month to date cooling degree days 7  
Year to date cooling degree days 36  
Since 1 June cooling degree days 35  
Growing Degree Days 14 (Base 50)    
Moisture  
Dew Point 39 °F    
Average Humidity 44    
Maximum Humidity 87    
Minimum Humidity 17    
Precipitation  
Precipitation 0.00 in 0.03 in 0.31 in (2002)
Month to date precipitation 0.08  
Year to date precipitation 6.15  
Sea Level Pressure  
Sea Level Pressure 30.39 in    
Wind  
Wind Speed 2 mph (SSE)    
Max Wind Speed 17 mph    
Max Gust Speed 24 mph    
Visibility 10 miles    
Events Rain , Thunderstorm    
T = Trace of Precipitation, MM = Missing Value Source: NWS Daily Summary

Daily Weather History Graph

Daily Weather History Graph

Search for Another Location

Airport or City:

Trip Planner

Search our weather history database for the weather conditions in past years. The results will help you decide how hot, cold, wet, or windy it might be!

Date:

Astronomy

Jul. 03, 2014 Rise Set
Actual Time 5:52 AM MDT 8:32 PM MDT
Civil Twilight 5:21 AM MDT 9:03 PM MDT
Nautical Twilight 4:43 AM MDT 9:41 PM MDT
Astronomical Twilight 4:00 AM MDT 10:24 PM MDT
Moon 11:46 AM MDT (7/3) No Moon Set
Length of Visible Light 15h 41m
Length of Day
14h 39m
Waxing Crescent, 33% of the Moon is Illuminated
Jul 3
Waxing Crescent
Jul 5
First Quarter
Jul 12
Full
Jul 18
Last Quarter
Jul 26
New

Hourly Weather History & Observations

Time (MDT) Temp. Dew Point Humidity Pressure Visibility Wind Dir Wind Speed Gust Speed Precip Events Conditions
12:15 AM 61.2 °F 37.4 °F 41% 30.39 in 10.0 mi Calm Calm - N/A   Clear
12:35 AM 59.4 °F 41.2 °F 51% 30.39 in 10.0 mi Calm Calm - N/A   Scattered Clouds
12:55 AM 59.9 °F 39.7 °F 47% 30.39 in 10.0 mi Calm Calm - N/A   Mostly Cloudy
1:15 AM 60.3 °F 43.0 °F 53% 30.38 in 10.0 mi Calm Calm - N/A Thunderstorm Mostly Cloudy
1:35 AM 59.5 °F 42.1 °F 52% 30.39 in 10.0 mi Calm Calm - N/A Thunderstorm Scattered Clouds
1:55 AM 56.5 °F 43.3 °F 61% 30.39 in 10.0 mi Calm Calm - N/A   Scattered Clouds
2:15 AM 57.6 °F 43.0 °F 58% 30.40 in 10.0 mi Calm Calm - N/A   Mostly Cloudy
2:35 AM 59.0 °F 42.1 °F 53% 30.40 in 10.0 mi Calm Calm - N/A Thunderstorm Thunderstorm
2:55 AM 57.2 °F 42.6 °F 58% 30.40 in 10.0 mi NE 5.8 mph - N/A Rain Rain
3:15 AM 56.3 °F 43.3 °F 62% 30.40 in 10.0 mi NNE 4.6 mph - N/A Thunderstorm Mostly Cloudy
3:35 AM 54.1 °F 46.0 °F 74% 30.40 in 10.0 mi Calm Calm - N/A   Scattered Clouds
3:55 AM 52.9 °F 45.9 °F 77% 30.40 in 10.0 mi Calm Calm - N/A   Scattered Clouds
4:15 AM 51.4 °F 47.1 °F 85% 30.39 in 10.0 mi Calm Calm - N/A   Clear
4:35 AM 51.3 °F 47.1 °F 86% 30.39 in 10.0 mi Calm Calm - N/A   Clear
4:55 AM 53.6 °F 45.1 °F 73% 30.39 in 10.0 mi Calm Calm - N/A   Clear
5:15 AM 50.7 °F 47.1 °F 87% 30.40 in 10.0 mi Calm Calm - N/A   Clear
5:35 AM 48.7 °F 44.6 °F 86% 30.40 in 10.0 mi Calm Calm - N/A   Clear
5:55 AM 50.0 °F 42.8 °F 76% 30.40 in 10.0 mi Calm Calm - N/A   Clear
6:15 AM 48.7 °F 44.4 °F 85% 30.40 in 10.0 mi Calm Calm - N/A   Clear
6:35 AM 50.5 °F 43.2 °F 76% 30.40 in 10.0 mi Calm Calm - N/A   Clear
6:55 AM 51.3 °F 45.5 °F 81% 30.41 in 10.0 mi Calm Calm - N/A   Clear
7:15 AM 55.4 °F 42.8 °F 63% 30.41 in 10.0 mi ESE 4.6 mph - N/A   Clear
7:55 AM 58.8 °F 42.4 °F 55% 30.43 in 10.0 mi ENE 3.5 mph - N/A   Clear
8:15 AM 59.4 °F 43.5 °F 56% 30.42 in 10.0 mi NE 5.8 mph - N/A   Clear
8:35 AM 61.5 °F 44.6 °F 54% 30.43 in 10.0 mi Calm Calm - N/A   Clear
8:55 AM 63.9 °F 43.5 °F 48% 30.43 in 10.0 mi Calm Calm - N/A   Clear
9:15 AM 65.1 °F 42.4 °F 44% 30.43 in 10.0 mi Calm Calm - N/A   Clear
9:35 AM 66.2 °F 41.0 °F 40% 30.43 in 10.0 mi Calm Calm - N/A   Clear
9:55 AM 67.3 °F 39.9 °F 37% 30.42 in 10.0 mi SW 3.5 mph - N/A   Clear
10:15 AM 68.4 °F 40.1 °F 36% 30.41 in 10.0 mi SSW 3.5 mph - N/A   Clear
10:35 AM 70.0 °F 38.7 °F 32% 30.41 in 10.0 mi Calm Calm - N/A   Clear
10:55 AM 71.8 °F 38.1 °F 29% 30.41 in 10.0 mi West 4.6 mph - N/A   Clear
11:15 AM 73.8 °F 37.9 °F 27% 30.41 in 10.0 mi East 3.5 mph - N/A   Clear
11:35 AM 74.7 °F 37.6 °F 26% 30.40 in 10.0 mi Calm Calm - N/A   Clear
11:55 AM 74.3 °F 35.6 °F 24% 30.40 in 10.0 mi Calm Calm - N/A   Clear
12:15 PM 76.8 °F 36.7 °F 23% 30.38 in 10.0 mi SW 4.6 mph - N/A   Clear
12:35 PM 76.3 °F 36.9 °F 24% 30.38 in 10.0 mi SSW 4.6 mph - N/A   Clear
12:55 PM 79.7 °F 36.1 °F 21% 30.36 in 10.0 mi SSE 3.5 mph - N/A   Clear
1:15 PM 78.3 °F 34.9 °F 21% 30.36 in 10.0 mi Calm Calm - N/A   Clear
1:35 PM 79.5 °F 33.4 °F 19% 30.35 in 10.0 mi WSW 9.2 mph - N/A Thunderstorm Clear
1:55 PM 79.7 °F 32.5 °F 18% 30.35 in 10.0 mi WSW 5.8 mph - N/A   Clear
2:15 PM 79.9 °F 32.4 °F 18% 30.34 in 10.0 mi WNW 4.6 mph - N/A   Clear
2:35 PM 80.4 °F 31.6 °F 17% 30.34 in 10.0 mi NW 8.1 mph - N/A   Clear
2:55 PM 77.7 °F 33.8 °F 20% 30.35 in 10.0 mi NW 17.3 mph 24.2 mph N/A   Clear
3:15 PM 75.7 °F 31.1 °F 19% 30.36 in 10.0 mi NW 6.9 mph - N/A   Scattered Clouds
3:35 PM 74.7 °F 31.3 °F 20% 30.36 in 10.0 mi ENE 6.9 mph - N/A   Overcast
3:55 PM 73.4 °F 32.0 °F 22% 30.37 in 10.0 mi ESE 5.8 mph - N/A   Overcast
4:15 PM 73.2 °F 35.1 °F 25% 30.38 in 10.0 mi ESE 8.1 mph 16.1 mph N/A   Scattered Clouds
4:35 PM 73.0 °F 36.1 °F 26% 30.37 in 10.0 mi East 6.9 mph - N/A Thunderstorm Thunderstorm
4:55 PM 73.0 °F 35.6 °F 25% 30.36 in 10.0 mi ENE 5.8 mph - N/A   Clear
5:15 PM 73.6 °F 34.2 °F 24% 30.36 in 10.0 mi SE 3.5 mph - N/A   Clear
5:35 PM 75.7 °F 35.8 °F 23% 30.36 in 10.0 mi SE 4.6 mph - N/A   Clear
5:55 PM 74.8 °F 36.1 °F 25% 30.36 in 10.0 mi South 8.1 mph - N/A   Clear
6:15 PM 74.7 °F 33.8 °F 22% 30.35 in 10.0 mi SE 3.5 mph - N/A   Clear
6:35 PM 74.3 °F 32.9 °F 22% 30.34 in 10.0 mi East 3.5 mph - N/A   Clear
6:55 PM 72.5 °F 39.0 °F 30% 30.35 in 10.0 mi SE 3.5 mph - N/A   Scattered Clouds
7:15 PM 72.0 °F 36.9 °F 28% 30.35 in 10.0 mi SSE 5.8 mph - N/A   Scattered Clouds
7:35 PM 71.6 °F 37.4 °F 29% 30.34 in 10.0 mi Calm Calm - N/A   Scattered Clouds
7:55 PM 70.7 °F 37.6 °F 30% 30.34 in 10.0 mi Calm Calm - N/A   Clear
8:15 PM 70.7 °F 37.6 °F 30% 30.34 in 10.0 mi Calm Calm - N/A   Scattered Clouds
8:35 PM 69.6 °F 37.9 °F 31% 30.35 in 10.0 mi South 5.8 mph - N/A   Clear
8:55 PM 68.0 °F 37.6 °F 33% 30.36 in 10.0 mi SSE 3.5 mph - N/A   Clear
9:15 PM 59.5 °F 40.8 °F 50% 30.38 in 10.0 mi Calm Calm - N/A   Clear
9:35 PM 63.3 °F 39.4 °F 41% 30.39 in 10.0 mi Calm Calm - N/A   Clear
9:55 PM 61.9 °F 39.2 °F 43% 30.39 in 10.0 mi WNW 3.5 mph - N/A   Clear
10:15 PM 57.9 °F 39.6 °F 50% 30.40 in 10.0 mi WNW 3.5 mph - N/A   Clear
10:35 PM 58.8 °F 39.6 °F 49% 30.41 in 10.0 mi Calm Calm - N/A   Clear
10:55 PM 57.6 °F 39.6 °F 51% 30.42 in 10.0 mi Calm Calm - N/A   Clear
11:15 PM 55.9 °F 39.4 °F 54% 30.43 in 10.0 mi Calm Calm - N/A   Clear
11:35 PM 55.0 °F 39.7 °F 56% 30.44 in 10.0 mi WNW 3.5 mph - N/A   Clear
11:55 PM 56.3 °F 41.2 °F 57% 30.44 in 10.0 mi West 4.6 mph - N/A   Clear